MST,Max TemperatureF,Mean TemperatureF,Min TemperatureF,Max Dew PointF,MeanDew PointF,Min DewpointF,Max Humidity, Mean Humidity, Min Humidity, Max Sea Level PressureIn, Mean Sea Level PressureIn, Min Sea Level PressureIn, Max VisibilityMiles, Mean VisibilityMiles, Min VisibilityMiles, Max Wind SpeedMPH, Mean Wind SpeedMPH, Max Gust SpeedMPH,PrecipitationIn, CloudCover, Events, WindDirDegrees
2013-2-1,60,43,26,27,19,5,80,47,11,30.30,30.26,30.21,10,10,10,15,9,18,0.00,0,,331
2013-2-2,62,44,26,23,15,3,74,38,10,30.39,30.33,30.29,10,10,10,16,8,,0.00,0,,10
2013-2-3,57,44,32,30,21,10,65,42,16,30.32,30.17,30.06,10,10,10,20,7,26,0.00,2,,314
2013-2-4,59,48,37,32,31,27,81,56,33,30.12,30.07,30.03,10,10,10,14,9,,0.00,2,Rain,310
2013-2-5,62,48,33,34,30,27,87,58,29,30.13,30.07,30.01,10,10,10,14,9,22,0.00,0,,314
2013-2-6,57,44,32,32,29,27,81,57,31,30.08,30.02,29.97,10,10,10,20,11,26,0.00,0,,319
2013-2-7,59,44,28,34,25,16,93,55,20,30.18,30.13,30.08,10,10,10,12,8,16,0.00,0,,319
2013-2-8,59,42,26,25,14,0,80,36,10,30.13,30.00,29.85,10,10,10,18,7,28,0.00,0,,196
2013-2-9,46,32,19,27,17,10,80,49,23,29.98,29.86,29.78,10,10,3,33,15,40,0.00,1,Rain-Snow,271
2013-2-10,46,34,21,19,13,7,74,50,21,30.00,29.97,29.91,10,10,10,18,8,26,0.00,0,,307
2013-2-11,46,32,19,28,13,5,87,52,20,30.01,29.97,29.92,10,10,7,24,10,29,0.00,1,,310
2013-2-12,44,34,23,27,13,-8,93,51,13,30.17,30.09,29.99,10,10,10,22,13,25,0.00,1,,317
2013-2-13,53,35,17,10,8,5,63,36,15,30.18,30.12,30.06,10,10,10,18,10,22,0.00,0,,314
2013-2-14,57,38,19,16,12,9,63,33,14,30.19,30.11,30.04,10,10,10,20,10,24,0.00,0,,320
2013-2-15,57,44,28,18,12,1,51,34,10,30.39,30.28,30.19,10,10,10,16,8,26,0.00,0,,308
2013-2-16,57,40,23,5,1,-2,43,24,9,30.42,30.32,30.19,10,10,10,12,8,16,0.00,0,,17
2013-2-17,62,42,23,7,3,0,40,21,8,30.19,30.01,29.88,10,10,10,28,11,36,0.00,0,,308
2013-2-18,57,42,26,9,5,0,40,22,10,30.12,30.05,29.98,10,10,9,20,10,28,0.00,0,,312
2013-2-19,55,40,26,34,18,3,81,42,14,30.06,29.95,29.84,10,10,8,30,10,40,0.00,0,,227
2013-2-20,46,36,24,32,24,16,100,67,29,29.83,29.73,29.62,10,10,1,28,12,37,0.00,2,Rain-Snow,251
2013-2-21,41,32,24,23,21,18,86,67,45,29.98,29.89,29.78,10,10,7,33,19,41,0.00,3,Snow,306
2013-2-22,46,34,23,19,17,14,80,48,27,30.05,29.98,29.91,10,10,10,30,13,37,0.00,0,,302
2013-2-23,55,44,32,14,10,5,44,26,13,30.06,29.91,29.83,10,10,10,24,11,30,0.00,0,,302
2013-2-24,42,32,21,32,18,9,100,56,30,29.95,29.81,29.72,10,9,0,36,15,45,0.00,1,Rain-Snow,300
2013-2-25,48,32,17,14,10,7,73,42,20,30.10,30.03,29.95,10,10,10,22,12,28,0.00,0,,312
2013-2-26,55,37,19,16,8,-2,68,33,10,30.08,29.95,29.85,10,10,10,38,14,48,0.00,0,,306
2013-2-27,48,32,15,-2,-5,-11,45,23,10,30.25,30.19,30.09,10,10,10,14,9,17,0.00,0,,300
2013-2-28,53,34,15,1,-1,-8,46,23,10,30.33,30.28,30.21,10,10,10,15,8,21,0.00,0,,342